Regional Weather Roundup
Issued by NWS Kansas City/Pleasant Hill, MO

Home | Current Version | Previous Version | Text Only | Print | Product List | Glossary On
Versions: 1 2 3 4 5 6 7 8 9 10 11 12 13 14 15 16 17 18 19 20 21 22 23 24 25 26 27
000
ASUS43 KEAX 190810
RWREAX

WEATHER ROUNDUP FOR EASTERN KANSAS AND NORTHWEST MISSOURI
NATIONAL WEATHER SERVICE KANSAS CITY/PLEASANT HILL MO
200 AM CST FRI JAN 19 2018

KSZ040-057-103>105-MOZ028-029-037-043-190900-
...KANSAS CITY METROPOLITAN AREA...

CITY           SKY/WX    TMP DP  RH WIND       PRES   REMARKS
K.C. INTL      CLOUDY    34  19  54 SW15      29.98F WCI  24
K.C. DOWNTOWN  CLOUDY    38  18  44 SW10      30.00F WCI  31
LEES SUMMIT    CLOUDY    34  18  52 SW18      30.01S WCI  23
OLATHE - IXD   CLOUDY    34  18  52 S18       30.01F WCI  23
OLATHE - OJC   CLOUDY    32  18  56 SW12      30.01F WCI  23
LAWRENCE       CLOUDY    35  20  54 S10       30.01F WCI  27

$$

MOZ001>008-011>017-020>025-030>033-038>040-044>046-053-054-190900-
...NORTHERN AND CENTRAL MISSOURI...

CITY           SKY/WX    TMP DP  RH WIND       PRES   REMARKS
ST. JOSEPH     CLOUDY    35  24  64 SW13      29.96F WCI  26
MOSBY          CLOUDY    34  19  55 S5        30.01S WCI  30
WARRENSBURG    CLOUDY    32  18  55 S10       30.04F WCI  24
WHITEMAN AFB   CLEAR     32  16  51 SW17      30.00S WCI  21
CLINTON        CLOUDY    34  16  47 SW14G21   30.08S WCI  24
SEDALIA        CLOUDY    34  17  50 SW16      30.06S WCI  24
WARSAW         NOT AVBL
CHILLICOTHE      N/A     31  20  63 S8        29.98F WCI  23
KIRKSVILLE     CLOUDY    32  19  58 SW12      29.97F WCI  23

$$

MOZ041-047>049-056>058-063>065-088>090-097-190900-
...EASTERN AND SOUTHERN MISSOURI...

CITY           SKY/WX    TMP DP  RH WIND       PRES   REMARKS
ST. LOUIS INTL CLOUDY    33  12  41 SW8       30.11F WCI  26
SPIRIT OF STL  CLOUDY    36  11  35 SW12G21   30.10F WCI  28
COLUMBIA       CLOUDY    32  15  49 SW12      30.06F WCI  23
JEFFERSON CITY CLOUDY    34  15  46 SE5       30.10F WCI  30
ROLLA          CLOUDY    30  12  47 S13       30.10F WCI  20
OSAGE BEACH    CLOUDY    35  13  40 SW9       30.11F WCI  28
SPRINGFIELD    CLOUDY    27  12  53 S12       30.12F WCI  17
BRANSON        CLOUDY    32  10  40 CALM      30.17S
JOPLIN         CLOUDY    33  15  47 S18       30.13F WCI  22
WEST PLAINS    CLOUDY    28  12  51 SW8       30.17F WCI  20

$$

IAZ060-094-KSZ022-034>040-054-083-096-NEZ052-066-093-190900-
...KANSAS...SOUTHEAST NEBRASKA AND IOWA...

CITY           SKY/WX    TMP DP  RH WIND       PRES   REMARKS
TOPEKA         CLOUDY    36  21  54 SW7       29.99S WCI  30
MANHATTAN      CLOUDY    37  23  56 SW9       29.96F WCI  30
EMPORIA        CLOUDY    31  18  58 S9        30.01S WCI  23
CHANUTE        CLOUDY    32  16  51 S15       30.09S WCI  22
WICHITA        CLOUDY    32  17  54 S15       30.02F WCI  22
OMAHA          CLOUDY    27  21  78 SE10      29.84F WCI  17
LINCOLN        CLOUDY    32  23  69 S8        29.85F WCI  25
FALLS CITY     CLOUDY    34  23  64 S6        29.91F WCI  29
LAMONI         CLOUDY    30  21  69 S13       29.90F WCI  20
DES MOINES     CLOUDY    31  22  69 MISG      29.87F

$$





USA.gov is the U.S. government's official web portal to all federal, state and local government web resources and services.